[[{"header":{"parameterUnit":"m.s-1","parameterCategory":1,"la1":30.2992,"la2":30.254,"lo1":-89.0895,"lo2":-89.0443,"dy":0.0025,"dx":0.0025,"nx":19,"ny":19,"refTime":"2026-03-23T09:00:00:Z","depth":0,"parameterNumber":2,"parameterNumberName":"U-component_of_WINDS"},"data":[0,0,0,3.262,3.2621,3.2682,3.2683,3.2758,3.2759,0,0,0,0,0,0,0,0,0,0,0,3.2596,3.2596,3.262,3.2621,3.2682,3.2683,3.2758,3.2759,0,0,0,0,0,0,0,0,0,0,0,3.2596,3.2596,3.2597,3.2621,3.2682,3.2683,3.2758,3.2714,0,0,0,0,0,0,0,0,0,0,3.2655,3.2626,3.2596,3.2597,3.2622,3.2682,3.2683,3.2711,3.2716,3.2728,0,3.2734,0,3.2748,3.2764,3.2764,0,0,0,3.2626,3.2622,3.2644,3.2597,3.2622,3.2682,3.2656,3.2714,3.272,3.2735,3.2735,3.2738,3.2749,3.2764,3.2764,3.2815,3.2815,0,0,3.2622,3.2604,3.264,3.2647,3.2634,3.2654,3.2658,3.2718,3.2718,3.2736,3.274,3.275,3.2764,3.2765,3.2815,3.2815,0,0,0,3.2609,3.2602,3.2622,3.2644,3.2655,3.2656,3.266,3.2715,3.2724,3.2741,3.2751,3.2765,3.2766,3.2815,3.2815,3.28,0,0,0,3.2608,3.2594,3.262,3.261,3.2654,3.2685,3.2656,3.2719,3.2727,3.2751,3.2765,3.2766,3.2815,3.2815,3.28,3.2795,0,0,0,3.2594,3.2593,3.2599,3.2609,3.2634,3.2684,3.2696,3.2721,3.2733,3.2764,3.2766,3.2815,3.2815,3.28,3.2796,3.2806,0,0,0,3.2574,3.2582,3.2599,3.2613,3.2634,3.2674,3.2696,3.2727,3.2751,3.2765,3.2815,3.2815,3.28,3.2796,3.2806,3.2812,3.2812,0,0,3.2574,3.2582,3.2592,3.2608,3.2641,3.2666,3.2698,3.2737,3.2757,3.2796,3.2797,3.28,3.2796,3.2806,3.2817,3.2817,0,0,0,3.2586,3.2593,3.2606,3.2628,3.266,3.2688,3.2725,3.2742,3.2775,3.2772,3.2806,3.2804,3.2811,3.2815,3.2815,3.2824,3.2815,3.2815,3.2815,3.2559,3.2586,3.2606,3.2642,3.2665,3.2706,3.2729,3.2759,3.2776,3.2785,3.2796,3.28,3.2803,3.2803,3.2812,3.2801,3.2801,3.2801,3.28,3.2564,3.2579,3.2609,3.2639,3.2669,3.2696,3.274,3.2753,3.2786,3.2792,3.2799,3.2804,3.2802,3.2812,3.28,3.28,3.28,3.28,3.28,3.2549,3.2562,3.2583,3.2624,3.2653,3.2691,3.2723,3.2749,3.2774,3.2782,3.28,3.28,3.2806,3.2788,3.2788,3.2788,3.2788,3.2788,3.2788,3.2527,3.2551,3.2572,3.2612,3.2634,3.2666,3.2714,3.2737,3.2771,3.2788,3.2789,3.281,3.2796,3.2794,3.2789,3.2789,3.2789,3.2789,3.2789,3.2522,3.2529,3.2562,3.2585,3.2637,3.2669,3.2704,3.2751,3.2775,3.2792,3.2813,3.2798,3.2807,3.2808,3.2806,3.2804,3.2804,3.2804,3.2804,3.2511,3.252,3.2564,3.2599,3.2637,3.2674,3.2719,3.2759,3.2801,3.282,3.2824,3.2824,3.2823,3.2833,3.2833,3.2832,3.2837,3.2837,3.2837,3.2512,3.2527,3.2556,3.2597,3.2642,3.2682,3.2726,3.277,3.282,3.2839,3.2836,3.2834,3.2834,3.2832,3.2848,3.2847,3.2845,0,0]},{"header":{"parameterUnit":"m.s-1","parameterCategory":1,"la1":30.2992,"la2":30.254,"lo1":-89.0895,"lo2":-89.0443,"dy":0.0025,"dx":0.0025,"nx":19,"ny":19,"refTime":"2026-03-23T09:00:00:Z","depth":0,"parameterNumber":3,"parameterNumberName":"V-component_of_WINDS"},"data":[0,0,0,0.2426,0.2433,0.2741,0.2742,0.3139,0.3143,0,0,0,0,0,0,0,0,0,0,0,0.2337,0.234,0.2426,0.2433,0.2741,0.2742,0.3139,0.3143,0,0,0,0,0,0,0,0,0,0,0,0.2336,0.2339,0.2343,0.2434,0.2741,0.2742,0.3138,0.2904,0,0,0,0,0,0,0,0,0,0,0.2605,0.2525,0.2338,0.2343,0.2436,0.274,0.2742,0.2893,0.2919,0.3001,0,0.3075,0,0.3115,0.317,0.3171,0,0,0,0.2432,0.2504,0.2584,0.2343,0.2439,0.274,0.2602,0.2908,0.2937,0.3036,0.308,0.3095,0.3121,0.3172,0.3174,0.3647,0.3649,0,0,0.2415,0.2395,0.2564,0.2603,0.2555,0.2592,0.2611,0.2925,0.2973,0.3082,0.3104,0.3128,0.3175,0.3178,0.3645,0.3647,0,0,0,0.2367,0.2383,0.2455,0.2587,0.2642,0.2601,0.2623,0.2959,0.2985,0.3109,0.3133,0.3177,0.3182,0.3642,0.3646,0.3735,0,0,0,0.2357,0.2355,0.2448,0.2438,0.2636,0.2805,0.265,0.2963,0.2999,0.3131,0.3177,0.3186,0.364,0.3644,0.3727,0.3782,0,0,0,0.2316,0.235,0.2395,0.2437,0.2568,0.28,0.2843,0.2971,0.3014,0.3171,0.3187,0.3638,0.3643,0.3721,0.3771,0.3898,0,0,0,0.2268,0.2474,0.2396,0.2634,0.2565,0.2852,0.2841,0.3057,0.3203,0.3179,0.364,0.3645,0.3718,0.3764,0.3891,0.4002,0.4046,0,0,0.2516,0.2503,0.2645,0.2584,0.2879,0.2807,0.3116,0.3271,0.3306,0.3531,0.3543,0.373,0.377,0.3897,0.4301,0.4336,0,0,0,0.2716,0.2818,0.29,0.3036,0.3156,0.3263,0.3372,0.3428,0.3619,0.3417,0.3811,0.3836,0.3911,0.3965,0.3995,0.406,0.3669,0.3669,0.3668,0.304,0.307,0.3305,0.337,0.3502,0.3608,0.3718,0.3812,0.3808,0.3899,0.3967,0.4208,0.4271,0.4294,0.4361,0.4028,0.4028,0.4028,0.4029,0.3406,0.3554,0.3536,0.3758,0.3787,0.3974,0.4082,0.4071,0.4249,0.4161,0.4229,0.4131,0.4331,0.4391,0.4036,0.4035,0.4034,0.4033,0.4033,0.3622,0.3698,0.3759,0.3954,0.4101,0.416,0.4329,0.4351,0.4373,0.444,0.4512,0.451,0.4511,0.4472,0.4473,0.4474,0.4474,0.4475,0.4475,0.3823,0.3889,0.4029,0.4168,0.4255,0.4372,0.4476,0.4562,0.4663,0.4666,0.4666,0.4651,0.4344,0.4267,0.4489,0.4486,0.4485,0.4483,0.4483,0.4184,0.4104,0.432,0.4406,0.4569,0.4711,0.4733,0.4906,0.498,0.5062,0.503,0.48,0.4789,0.4766,0.4702,0.5023,0.5023,0.5023,0.5023,0.4367,0.4361,0.4583,0.4719,0.4855,0.4895,0.5135,0.5215,0.5287,0.5334,0.5289,0.5206,0.5181,0.5185,0.5153,0.5093,0.5507,0.5508,0.5508,0.459,0.4597,0.4799,0.4864,0.4991,0.5099,0.5324,0.548,0.5544,0.5528,0.537,0.535,0.5215,0.517,0.5154,0.5103,0.4994,0,0]}]]